Weather Roundup
Issued by NWS

Home | Current Version | Previous Version | Text Only | Print | Product List | Glossary On
Versions: 1 2 3 4 5 6 7 8 9 10 11 12 13 14 15 16 17 18 19 20 21 22 23 24 25 26 27 28 29 30 31 32 33 34 35 36 37 38 39 40 41 42 43 44 45 46 47 48 49 50
000
NZUS93 KARX 010110
HRRWXR

CURRENT HOURLY OBSERVATIONS ACROSS
MUCH OF THE UPPER MISSISSIPPI VALLEY
NATIONAL WEATHER SERVICE LA CROSSE WI
700 PM CST SUN FEB 28 2021


...SOUTHEAST MINNESOTA...


CITY           SKY/WX    TMP DP  RH WIND       PRES   REMARKS
ROCHESTER      CLEAR     21  15  78 W18       29.98R WCI   6
ROCHESTER/MAYO CLEAR     24  17  75 SW14G21   29.99R WCI  11
WINONA         CLEAR     30  25  80 W10       29.97R WCI  21
AUSTIN         NOT AVBL
ALBERT LEA     CLEAR     21  18  86 W9        30.04R WCI  11
DODGE CENTER   CLEAR     19  16  86 W17       30.01R WCI   4
PRESTON        CLEAR     22  18  83 W12       29.99R WCI  11
OWATONNA       CLEAR     19  16  86 W16       30.03R WCI   5
FARIBAULT      CLEAR     19  16  86 W9G17     30.03R WCI   9
$$

...ELSEWHERE IN MINNESOTA...


CITY           SKY/WX    TMP DP  RH WIND       PRES   REMARKS
MINNEAPOLIS    CLEAR     22  12  65 W14       30.02R WCI   9
INTNL FALLS    MOCLDY    10   0  63 W7        29.95R WCI  -1
DULUTH         PTCLDY    19   4  51 NW16      29.87R WCI   4
RED WING       CLEAR     27  16  63 W14G21    29.98R WCI  15
REDWOOD FALLS  CLEAR     19  12  74 W6        30.06R WCI  11
MANKATO        CLEAR     20  16  84 W14       30.06R WCI   7
WORTHINGTON    CLEAR     19  15  84 W13       30.07S WCI   6
FAIRMONT       CLEAR     22  16  78 NW14      30.08R WCI   9
$$

...SOUTHWEST WISCONSIN...


CITY           SKY/WX    TMP DP  RH WIND       PRES   REMARKS
LA CROSSE      CLEAR     32  23  69 W10       29.95R WCI  24
PRAIRIE DU CHI CLEAR     32  25  74 W13       29.97R WCI  23
BOSCOBEL       CLEAR     35  26  69 W8G17     29.95R WCI  29
LONE ROCK      PTCLDY    35  28  75 W13       29.92R WCI  26
PLATTEVILLE    PTCLDY    33  32  95 W15       29.94R WCI  23
FORT MC COY      N/A     31  23  71 W6        29.92R WCI  26
CAMP DOUGLAS   CLEAR     31  28  91 W16G22    29.88R WCI  20
MAUSTON-NEW LI PTCLDY    32  25  76 NW13      29.88R WCI  22
VIROQUA        CLEAR     30  28  91 W13       29.91R WCI  20
WIS DELLS      PTCLDY    32  26  80 W9        29.87R WCI  24
$$

...ELSEWHERE IN WISCONSIN...


CITY           SKY/WX    TMP DP  RH WIND       PRES   REMARKS
MILWAUKEE      PTCLDY    39  29  67 W16G25    29.82R WCI  30
MADISON        PTCLDY    35  28  75 NW8       29.87R WCI  29
GREEN BAY      CLEAR     35  26  69 NW17G26   29.76R WCI  25
EAU CLAIRE     CLEAR     29  17  61 W9        29.91R WCI  20
BLACK RVR FLS  CLEAR     30  22  72 W6        29.91R WCI  24
MEDFORD        CLEAR     27  21  80 W12G18    29.81R WCI  16
WAUSAU         PTCLDY    29  21  72 W16G26    29.79R WCI  17
WIS RAPIDS     PTCLDY    31  24  75 W13       29.86R WCI  21
MARSHFIELD     CLEAR     29  21  72 NW14G23   29.84R WCI  18
RICE LAKE      CLEAR     25  10  53 W12       29.92R WCI  14
$$

...NORTHEAST IOWA...


CITY           SKY/WX    TMP DP  RH WIND       PRES   REMARKS
WATERLOO       CLEAR     29  22  75 W12       30.03R WCI  19
DUBUQUE        PTCLDY    32  26  78 W16       29.95R WCI  21
DECORAH        PTCLDY    27  25  93 W9G17     29.97R WCI  17
MASON CITY     CLEAR     22  16  78 NW15      30.06R WCI   9
CHARLES CITY   CLEAR     25  21  86 NW17G24   30.02R WCI  11
OELWEIN        CLEAR     27  23  86 W16       30.01R WCI  14
$$

...ELSEWHERE IN IOWA...


CITY           SKY/WX    TMP DP  RH WIND       PRES   REMARKS
DES MOINES     PTCLDY    30  24  78 NW9       30.09R WCI  22
IOWA CITY      PTCLDY    33  26  75 NW16      30.04R WCI  23
FORT DODGE     CLEAR     26  21  81 NW6       30.09R WCI  19
MARSHALLTOWN   NOT AVBL
CEDAR RAPIDS   CLEAR     29  25  85 NW18      30.01R WCI  16
$$

...NORTHERN ILLINOIS...


CITY           SKY/WX    TMP DP  RH WIND       PRES   REMARKS
CHICAGO-OHARE  MOCLDY    39  31  72 W15G24    29.85R WCI  31
CHICAGO-MIDWAY CLOUDY    39  30  70 W17       29.85R WCI  30
MOLINE         PTCLDY    36  29  75 NW15      29.99R WCI  27
ROCKFORD       PTCLDY    37  29  72 W10       29.92R WCI  30
PEORIA         MOCLDY    37  31  78 VRB7      29.97R WCI  32
$$

NOTE: "FAIR" INDICATES FEW OR NO CLOUDS BELOW 12,000 FEET WITH NO
SIGNIFICANT WEATHER AND/OR OBSTRUCTIONS TO VISIBILITY. WIND
SPEEDS ARE IN MILES-PER-HOUR.




USA.gov is the U.S. government's official web portal to all federal, state and local government web resources and services.